• In Hungary
  • List of Countries
  • For 7 days
  • Water Temperature
  • Satellite Maps
  • Weather Map
  • News
  • Weather Widgets
  • user-avatar
    Login

    Hourly Weather Moshino

    Today, 19 April, Thursday

    Time Temperature Precipitation Wind Pressure Humidity
    00:00 +6°C° 0.2 mm 2 mps 742 mmHg 95%
    01:00 +6°C° 0.2 mm 2 mps 742 mmHg 96%
    02:00 +6°C° 0 mm 2 mps 742 mmHg 96%
    03:00 +5°C° 0.4 mm 3 mps 742 mmHg 95%
    04:00 +5°C° 0.4 mm 3 mps 742 mmHg 95%
    05:00 +5°C° 0.4 mm 3 mps 742 mmHg 95%
    06:00 +6°C° 0.3 mm 4 mps 743 mmHg 93%
    07:00 +6°C° 0.3 mm 4 mps 743 mmHg 91%
    08:00 +7°C° 0.3 mm 4 mps 743 mmHg 89%
    09:00 +8°C° 0.1 mm 5 mps 743 mmHg 84%
    10:00 +9°C° 0.1 mm 5 mps 743 mmHg 80%
    11:00 +10°C° 0.1 mm 5 mps 743 mmHg 76%
    12:00 +10°C° 0.1 mm 5 mps 743 mmHg 76%
    13:00 +10°C° 0.1 mm 5 mps 743 mmHg 75%
    14:00 +11°C° 0.1 mm 6 mps 743 mmHg 75%
    15:00 +10°C° 0.1 mm 5 mps 743 mmHg 76%
    16:00 +10°C° 0.1 mm 5 mps 744 mmHg 76%
    17:00 +9°C° 0.1 mm 5 mps 744 mmHg 76%
    18:00 +9°C° 0 mm 5 mps 744 mmHg 77%
    19:00 +8°C° 0 mm 4 mps 745 mmHg 78%
    20:00 +7°C° 0 mm 4 mps 745 mmHg 78%
    21:00 +6°C° 0 mm 4 mps 746 mmHg 80%
    22:00 +6°C° 0 mm 4 mps 746 mmHg 82%
    23:00 +6°C° 0 mm 4 mps 747 mmHg 85%

    Tomorrow, 20 April, Friday

    Time Temperature Precipitation Wind Pressure Humidity
    00:00 +5°C° 0 mm 3 mps 747 mmHg 87%
    01:00 +4°C° 0 mm 3 mps 747 mmHg 89%
    02:00 +4°C° 0 mm 3 mps 748 mmHg 92%
    03:00 +4°C° 0 mm 3 mps 748 mmHg 93%
    04:00 +4°C° 0 mm 3 mps 748 mmHg 94%
    05:00 +4°C° 0 mm 3 mps 748 mmHg 95%
    06:00 +4°C° 0.1 mm 3 mps 749 mmHg 92%
    07:00 +5°C° 0.1 mm 3 mps 749 mmHg 90%
    08:00 +5°C° 0.1 mm 3 mps 749 mmHg 88%
    09:00 +7°C° 0.1 mm 3 mps 749 mmHg 82%
    10:00 +8°C° 0.1 mm 3 mps 750 mmHg 75%
    11:00 +9°C° 0.1 mm 3 mps 750 mmHg 69%
    12:00 +10°C° 0 mm 3 mps 750 mmHg 66%
    13:00 +10°C° 0 mm 3 mps 750 mmHg 63%
    14:00 +11°C° 0 mm 3 mps 750 mmHg 60%
    15:00 +12°C° 0 mm 2 mps 749 mmHg 61%
    16:00 +12°C° 0 mm 2 mps 749 mmHg 62%
    17:00 +12°C° 0 mm 2 mps 749 mmHg 63%
    18:00 +9°C° 0 mm 2 mps 748 mmHg 69%
    19:00 +8°C° 0 mm 2 mps 748 mmHg 75%
    20:00 +7°C° 0 mm 2 mps 748 mmHg 82%
    21:00 +7°C° 0 mm 2 mps 747 mmHg 82%
    22:00 +7°C° 0 mm 3 mps 746 mmHg 82%
    23:00 +7°C° 0 mm 3 mps 745 mmHg 83%

    Day after tomorrow, 21 April, Saturday

    Time Temperature Precipitation Wind Pressure Humidity
    00:00 +6°C° 0 mm 4 mps 744 mmHg 82%
    01:00 +6°C° 0 mm 5 mps 743 mmHg 81%
    02:00 +7°C° 0 mm 5 mps 742 mmHg 80%
    03:00 +7°C° 0.1 mm 5 mps 741 mmHg 82%
    04:00 +7°C° 0.1 mm 5 mps 740 mmHg 84%
    05:00 +7°C° 0.1 mm 5 mps 739 mmHg 86%
    06:00 +8°C° 0.1 mm 6 mps 738 mmHg 85%
    07:00 +8°C° 0.1 mm 6 mps 737 mmHg 84%
    08:00 +9°C° 0.1 mm 6 mps 736 mmHg 84%
    09:00 +10°C° 0.4 mm 6 mps 735 mmHg 82%
    10:00 +11°C° 0.4 mm 7 mps 734 mmHg 80%
    11:00 +11°C° 0.4 mm 7 mps 733 mmHg 79%
    12:00 +11°C° 0.4 mm 7 mps 732 mmHg 77%
    13:00 +11°C° 0.4 mm 8 mps 732 mmHg 75%
    14:00 +11°C° 0.4 mm 8 mps 731 mmHg 73%
    15:00 +10°C° 0.1 mm 8 mps 731 mmHg 71%
    16:00 +9°C° 0.1 mm 8 mps 731 mmHg 69%
    17:00 +7°C° 0.1 mm 8 mps 732 mmHg 67%
    18:00 +6°C° 0 mm 8 mps 732 mmHg 68%
    19:00 +5°C° 0 mm 8 mps 733 mmHg 69%
    20:00 +5°C° 0 mm 8 mps 733 mmHg 71%
    21:00 +4°C° 0 mm 7 mps 733 mmHg 72%
    22:00 +4°C° 0 mm 7 mps 734 mmHg 74%
    23:00 +3°C° 0 mm 6 mps 734 mmHg 75%

    22 April, Sunday

    Time Temperature Precipitation Wind Pressure Humidity
    00:00 +3°C° 0 mm 6 mps 735 mmHg 76%
    01:00 +2°C° 0 mm 6 mps 735 mmHg 77%
    02:00 +2°C° 0 mm 6 mps 736 mmHg 78%
    03:00 +2°C° 0 mm 5 mps 736 mmHg 78%
    04:00 +2°C° 0 mm 5 mps 737 mmHg 78%
    05:00 +1°C° 0 mm 5 mps 737 mmHg 78%
    06:00 +2°C° 0 mm 5 mps 737 mmHg 75%
    07:00 +2°C° 0 mm 5 mps 738 mmHg 72%
    08:00 +2°C° 0 mm 5 mps 738 mmHg 68%
    09:00 +3°C° 0 mm 5 mps 738 mmHg 65%
    10:00 +4°C° 0 mm 4 mps 739 mmHg 63%
    11:00 +5°C° 0 mm 4 mps 739 mmHg 60%
    12:00 +5°C° 0 mm 4 mps 739 mmHg 58%
    13:00 +6°C° 0 mm 4 mps 739 mmHg 57%
    14:00 +6°C° 0 mm 4 mps 740 mmHg 55%
    15:00 +6°C° 0 mm 4 mps 740 mmHg 55%
    16:00 +6°C° 0 mm 4 mps 740 mmHg 56%
    17:00 +5°C° 0 mm 4 mps 740 mmHg 56%
    18:00 +4°C° 0 mm 3 mps 741 mmHg 61%
    19:00 +2°C° 0 mm 3 mps 741 mmHg 66%
    20:00 +2°C° 0 mm 2 mps 742 mmHg 71%
    21:00 +2°C° 0 mm 2 mps 742 mmHg 73%
    22:00 +2°C° 0 mm 1 mps 742 mmHg 75%
    23:00 +1°C° 0 mm 1 mps 743 mmHg 77%

    23 April, Monday

    Time Temperature Precipitation Wind Pressure Humidity
    00:00 +1°C° 0 mm 1 mps 743 mmHg 78%
    01:00 0°C° 0 mm 1 mps 743 mmHg 79%
    02:00 0°C° 0 mm 1 mps 744 mmHg 79%
    03:00 0°C° 0 mm 1 mps 744 mmHg 79%
    04:00 0°C° 0 mm 1 mps 744 mmHg 78%
    05:00 0°C° 0 mm 1 mps 744 mmHg 77%
    06:00 +1°C° 0 mm 2 mps 745 mmHg 67%
    07:00 +2°C° 0 mm 2 mps 745 mmHg 57%
    08:00 +4°C° 0 mm 2 mps 745 mmHg 47%
    09:00 +5°C° 0 mm 2 mps 745 mmHg 43%
    10:00 +5°C° 0 mm 2 mps 745 mmHg 40%
    11:00 +6°C° 0 mm 2 mps 745 mmHg 37%
    12:00 +7°C° 0 mm 2 mps 745 mmHg 36%
    13:00 +7°C° 0 mm 2 mps 745 mmHg 35%
    14:00 +8°C° 0 mm 2 mps 745 mmHg 34%
    15:00 +8°C° 0 mm 2 mps 745 mmHg 36%
    16:00 +9°C° 0 mm 1 mps 745 mmHg 37%
    17:00 +8°C° 0 mm 1 mps 745 mmHg 38%
    18:00 +7°C° 0 mm 1 mps 745 mmHg 44%
    19:00 +5°C° 0 mm 1 mps 745 mmHg 51%
    20:00 +3°C° 0 mm 1 mps 745 mmHg 57%
    21:00 +3°C° 0 mm 1 mps 745 mmHg 59%
    22:00 +1°C° 0 mm 2 mps 745 mmHg 62%
    23:00 -1°C° 0 mm 2 mps 745 mmHg 64%

    24 April, Tuesday

    Time Temperature Precipitation Wind Pressure Humidity
    00:00 -1°C° 0 mm 2 mps 745 mmHg 66%
    01:00 -1°C° 0 mm 2 mps 745 mmHg 67%
    02:00 -1°C° 0 mm 2 mps 745 mmHg 68%
    03:00 -1°C° 0 mm 2 mps 745 mmHg 67%
    04:00 -1°C° 0 mm 2 mps 745 mmHg 67%
    05:00 -1°C° 0 mm 2 mps 744 mmHg 67%
    06:00 +2°C° 0 mm 2 mps 744 mmHg 61%
    07:00 +3°C° 0 mm 3 mps 744 mmHg 55%
    08:00 +5°C° 0 mm 3 mps 744 mmHg 50%
    09:00 +8°C° 0 mm 3 mps 743 mmHg 47%
    10:00 +8°C° 0 mm 4 mps 743 mmHg 44%
    11:00 +10°C° 0 mm 4 mps 743 mmHg 41%
    12:00 +11°C° 0 mm 4 mps 742 mmHg 41%
    13:00 +11°C° 0 mm 4 mps 742 mmHg 41%
    14:00 +12°C° 0 mm 4 mps 741 mmHg 42%
    15:00 +11°C° 0 mm 4 mps 741 mmHg 46%
    16:00 +10°C° 0 mm 3 mps 741 mmHg 50%
    17:00 +10°C° 0 mm 3 mps 740 mmHg 55%
    18:00 +9°C° 0.1 mm 3 mps 740 mmHg 59%
    19:00 +8°C° 0.1 mm 3 mps 740 mmHg 64%
    20:00 +7°C° 0.1 mm 3 mps 739 mmHg 68%
    21:00 +5°C° 0.5 mm 3 mps 739 mmHg 71%
    22:00 +5°C° 0.5 mm 3 mps 739 mmHg 73%
    23:00 +4°C° 0.5 mm 4 mps 739 mmHg 75%
    Show more